Tracking 19192 objects as of 22-Jun-2018
HD Live streaming from Space Station
objects crossing your sky now

FENGYUN 1C DEB

Track FENGYUN 1C DEB now!
10-day predictions


NORAD ID: 37017
Int'l Code: 1999-025ECZ
Perigee: 579.3 km
Apogee: 1,094.2 km
Inclination: 98.7 °
Period: 101.5 minutes
Semi major axis: 7207 km
RCS: 0.0079 m2 (small)
Launch date: May 10, 1999
Source: People's Republic of China (PRC)
Launch site: Taiyaun Space Center, China (TSC)

Note: This is SATELLITE DEBRIS
aabbcc
Your satellite tracking list
Your tracking list is empty




NASA's NSSDC Master Catalog

Two Line Element Set (TLE):
1 37017U 99025ECZ 18171.99893423 +.00000387 +00000-0 +11274-3 0  9994
2 37017 098.7245 089.5021 0357186 017.8339 343.5005 14.18752886222838
Source of the keplerian elements: AFSPC